Starlink 6116

operational
NORAD ID: 56911 Int'l Des: 2023-083 Owner: SPXS Country: US Constellation: starlink
LEOCIRCULAR

About Starlink 6116

Description loading...

Live Position

Loading 3D Globe...

Upcoming Passes

Altitude History

Altitude vs Time

uPlot chart will show altitude changes over time

Two-Line Element Set

1 56911U 23083AM 25307.62905775 .00002463 00000-0 19734-3 0 9998
2 56911 43.0041 34.0956 0001246 276.0073 84.0628 15.02528420132857
Epoch: Nov 3, 2025 • Age: 25 hours

Current Status

Altitude 558.6 km
Velocity 7.58 km/s
Sub-Earth Point 6.84°N, 79.72°W
Launch Date Jun 12, 2023
Age 2.3 years
Type internet

Technical Details

Classification Payload
Mass 305.00 kg
Dry Mass 290.00 kg
Total Mass 305.00 kg
Length 0.20 m
Diameter 2.80 m
Span 9.00 m
Shape Box + pan
Manufacturer SPXS
Bus Type Starlink
Phase Status In Orbit
Owner/State SPXS/US

Large Constellations

Loading constellations...